Showing default

COSMOS 2168, 21782

Orbit data source: Space-Track

COSMOS 2168, 21782 is a payload satellite owned by UNKS RF (CIS) in LEO that was launched on Tue, 12 Nov 1991 UTC via a TSIKLON-3 launch vehicle from the Plesetsk Missile And Space Complex (PKMTR). Payload-class satellites include a variety of spacecraft equipped with specific instruments for various scientific and technological missions. These include communications satellites like Starlink; space stations such as the ISS; scientific satellites like the Hubble; Earth observation satellites from companies like Planet Labs, Umbra, and HawkEye 360; GPS; miniature CubeSats for education and research; and military/defense satellites.

Loading next visibility...
Identifier
21782, 1991-077D
Orbit
LEO
Country
Flag of CISCIS
Related business
Manufacturer
NPO PM
Mission
Defense Communications
Bus & Motor
STRELA-3, Unknown motor
Mass
225 kg wet, 225 kg dry
Launch date (UTC)
1991-11-12 (34 years ago)
Launch vehicle
TSIKLON-3
Launch site
Plesetsk Missile And Space Complex (PKMTR)
Object type
Payload
Rocket body
Debris
Shape & HBR
Cyl, 0.8 m
Radar Cross Section
1.257 m², Large (>1 m²)

Expand to show TLE details & history
Last TLE update: 12 hours ago

TLE from 12 hours ago
0 COSMOS 2168
1 21782U 91077D   26126.10505910  .00000035  00000-0  13078-3 0  9992
2 21782  82.5972 239.8164 0014694 119.6441  53.6296 12.65530624592470
Epoch: 2026-05-06T02:31Z
TLE epoch observation values (Epoch: 2026-05-06T02:31:17.106Z)
Latitude
6.46399°
Longitude
157.18551°
Altitude
1,395.563 km
Speed
7.166 km/s
True Right ascension
03h 55m 54s
True Declination
6° 25' 44"
Sunlit
Object was in daylight at epoch
Visualization orbit readout
Latitude
Unknown
Longitude
Unknown
Altitude
Unknown
Speed
Unknown
Apparent Right ascension
Unknown
Apparent Declination
Unknown
Sunlit
N/A
Visualization observer readout
Local Sidereal Time
22:22:25
Azimuth
Unknown
Elevation
Unknown
Doppler factor
Unknown
Orbital elements
Apogee altitude
1,408.941 km
Perigee altitude
1,386.09 km
Semi-major axis
7,775.652 km
Eccentricity
0.00147
Inclination
82.5972°
RAAN
239.8164°
Arg. of periapsis
119.6441°
True anomaly
53.76533°
Mean anomaly
53.6296°
Eccentric anomaly
53.69745°
Mean motion
3.16547 °/min
Orbital period
113.73 mins
BSTAR
0.00013078
Loading maneuver chart data...
Computing Atmospheric mass density...
Loading historical data...
Loading historical data...
Loading historical data...
Loading historical data...
Loading historical data...
Loading historical data...
Loading historical data...

Documentation

Showing up to 5 results
|